Location: *
(50.5492°N, 7.7469°E)
Time: 02:13:18
(UTC+00:00)

STARLINK-44 - Pass Details

Date: 21 October 2019
Orbit: 548 x 551 km, 53.0° (Epoch: 15 November)

Event Time Altitude Azimuth Distance (km) Brightness Sun altitude
Rises 18:15:24 0° 280° (W) 2,719 8.9 -18.1°
Reaches altitude 10° 18:17:40 10° 284° (WNW) 1,825 7.5 -18.5°
Maximum altitude 18:21:47 62° 6° (N) 620 3.8 -19.1°
Enters shadow 18:22:46 46° 63° (ENE) 745 3.9 -19.3°
